Location: Winnipeg
(49.8830°N, 97.1670°W)
Time: 21:38:37
(UTC-06:00)

Envisat - Pass Details

Date: 09 December 2022
Orbit: 763 x 765 km, 98.2° (Epoch: 28 January)

Event Time Altitude Azimuth Distance (km) Brightness Sun altitude
Rises 04:35:23 0° 16° (NNE) 3,245 6.5 -34.1°
Reaches altitude 10° 04:37:44 10° 20° (NNE) 2,314 5.7 -33.7°
Enters shadow 04:39:10 19° 23° (NNE) 1,764 5.1 -33.5°
